Cosmos 1400 Rocket - Orbit

View from above orbital plane
View from above orbital plane
View from above satellite
View from above satellite

Ground track
Ground track

The orbit data is extracted from the following two-line orbital elements,

1 13403U 82079B   13139.18847727  .00001424  00000-0  10589-3 0  2965
2 13403 081.1705 170.9290 0038893 133.0749 227.3739 15.01774702672654
Epoch (UTC): 19 May 2013 04:31:24
Eccentricity: 0.0038893
inclination: 81.1705°
perigee height: 534 km
apogee height: 588 km
right ascension of ascending node: 170.9290°
argument of perigee: 133.0749°
revolutions per day: 15.01774702
mean anomaly at epoch: 227.3739°
orbit number at epoch: 67265

The dashed part of the orbit path shows where the satellite is in the earth's shadow,  

Developed and maintained by Chris Peat, Heavens-Above GmbH. Please read the updated FAQ before sending e-mail. Imprint. DLR